LEMUR-2-TENNYSONLILY (52732 NORAD) Tracking and Keplerian Element Data

This shows tracking and keplerian element data for the satellite.

Feedback or suggestion? Click here.




ElementValue
Catalog52732
NameLEMUR-2-TENNYSONLILY
Epoch Orbit714
Epoch Day193.01241567
Epoch Year2022
RAAN307.3021
Inclination97.5231
Eccentricity0.0010919
Argument of Perigee103.9792
Mean Anonmoly256.2653
Mean Motion15.11980302
Decay Rate9.257E-05
L11 52732U 22057A 22193.01241567 .00009257 00000+0 54218-3 0 9993
L22 52732 97.5231 307.3021 0010919 103.9792 256.2653 15.11980302 7146

Live tracking and technical data element details for LEMUR-2-TENNYSONLILY (NORAD 52732). LEMUR-2-TENNYSONLILY can be tracked NOW for your location showing map with azimuth and elevation plus other details from your city location.

Track the satellite on the map from your city or location and see movement details for azimuth, elevation, latitude, longitude, range, height, and movement on the map or in text.







IsCatalogInMostPopularTable: catalog: 52732, numindb: 4
Update: records affected: 1



GetName: 52732 LEMUR-2-TENNYSONLILY

Hit Count: updated at: Sun, 14 Aug 2022 01:00:44 GMT